Vertical_Velocity
8 12 -13 15 3 13 2 4 -15 -8 -1 -5 -6 -3 -0 -1 -2 -1 -2 -0 2 -2 1 3 6 4 -1 0 1 4 5 2 -0 -1 -4 -4 -4 -3
-6 -2 -12 9 -7 -8 29 2 12 -5 -3 -6 -9 -6 -0 1 -1 -2 -2 3 0 0 -1 2 2 1 1 1 -1 1 4 3 -3 -3 -2 0 2 0
-4 1 -1 5 -6 -2 6 4 1 -5 4 -4 1 2 4 4 1 -0 3 1 0 -1 -0 0 2 2 -1 -1 1 3 4 0 3 3 -1 -3 -5 -2
-2 2 0 2 -10 18 15 29 3 -0 3 -8 1 -12 -4 -2 3 2 0 -0 0 2 -0 -2 1 1 -0 -0 -2 -3 -2 1 3 2 2 -3 -1 -1
-3 -0 -7 4 2 12 2 -25 45 -4 9 -3 -3 -4 0 9 -2 4 1 2 3 5 3 2 1 1 2 -1 -1 -3 -4 1 -2 -1 -0 0 -0 -1
-2 -2 9 7 7 -7 11 -1 9 38 -2 8 -0 -0 5 4 7 2 1 -1 -4 6 0 1 5 3 3 -3 -2 -3 0 0 -3 1 -1 2 -2 1
0 -4 -4 -4 1 -1 1 -14 31 -10 37 13 5 -0 -2 1 -4 -8 -3 6 3 -0 1 -5 0 -1 -3 0 -2 2 3 -0 -0 4 1 2 1 1
-4 -1 -7 0 -2 -3 -13 2 3 -2 -12 56 9 -5 -6 -1 -1 -4 4 1 -10 -8 6 1 1 -1 -1 -1 4 4 2 4 -1 4 0 -1 2 3
-4 0 -1 -5 3 2 -4 1 -11 -9 -3 9 47 -11 -13 -10 0 -5 -1 5 -12 2 7 5 3 -7 -2 2 1 3 1 0 0 2 1 1 1 0
-6 -6 -1 -5 -2 -0 -1 -10 -7 -19 -24 12 16 -4 -18 -9 -8 -11 -9 18 9 10 4 -4 6 -7 3 5 1 3 0 -0 0 1 1 1 -0 -3
-2 -6 -5 -4 -5 6 4 5 -1 -4 1 6 21 5 8 10 2 9 -5 4 -1 -8 -3 3 -1 3 4 4 7 2 -1 4 1 2 1 -1 -1 -1
3 -4 -6 -3 -3 -1 10 4 -1 -25 3 6 -2 24 3 4 -0 -16 3 -3 2 5 -3 2 -4 2 2 0 3 -2 -2 3 -0 -2 0 -1 -1 -2
0 -4 -3 1 -1 -4 4 -4 -17 18 -6 -16 37 3 10 6 1 1 -6 2 -2 -2 -12 2 -5 1 2 -3 -1 2 1 7 -0 1 0 -2 -1 2
4 -2 -4 1 -0 -3 -4 -6 -0 7 -3 -6 6 21 3 -9 -1 -3 -3 -0 2 8 -2 2 3 -4 -4 1 3 -0 0 4 1 1 -2 -0 -1 1
-3 -3 -4 0 2 -4 -2 -4 7 4 -2 -7 -15 13 -11 -3 10 2 9 1 5 1 9 -2 1 -0 6 2 -3 -6 -1 -1 0 -1 -1 0 1 2
2 -4 2 3 2 3 -7 4 -3 5 -6 -4 -26 49 13 -2 -11 -8 4 -1 2 3 8 1 10 4 3 10 6 3 1 -3 -4 -1 -0 -3 -0 -1
2 4 3 1 1 1 -2 -1 -2 4 -1 1 -5 36 0 3 -3 3 14 3 -1 -2 0 4 7 12 7 5 -2 -1 -2 -2 -4 -1 0 0 -2 -2
3 0 -1 2 3 0 1 2 1 7 -3 5 -6 41 -2 -9 -6 0 9 1 -1 -4 -0 -1 -5 3 7 6 0 -2 -2 -3 -1 -1 2 -2 -0 -1
-4 -3 3 6 5 3 0 3 -13 3 -1 11 -5 4 13 -3 -1 1 4 -1 4 10 1 3 -0 -3 -1 -2 1 -3 -1 -1 -2 -3 -2 -2 -1 -2
-2 0 2 5 3 4 1 6 -1 15 -2 8 1 5 2 -3 -8 3 1 -1 1 1 7 14 3 -2 -14 -11 -7 -5 -1 1 -0 -1 -2 -0 1 -3
-2 -3 1 3 2 1 5 18 8 20 -5 3 8 -13 1 -7 3 -1 0 8 4 2 2 2 3 8 2 9 7 1 1 -1 1 3 -3 -1 -2 -0
1 0 1 3 4 -2 8 12 7 13 17 10 7 1 2 11 -1 -3 3 3 7 5 5 10 12 0 6 4 -1 -2 -2 -2 -0 -3 1 -3 -2 -3
1 1 0 3 4 0 5 5 17 8 12 6 9 2 8 -8 6 6 12 1 -4 22 3 -6 -0 5 2 10 1 -3 -3 -1 -1 1 -0 -3 -1 -0
Height
1415 1414 1417 1421 1423 1426 1432 1434 1436 1448 1452 1456 1461 1465 1471 1476 1481 1487 1493 1497 1501 1506 1510 1513 1517 1521 1525 1529 1533 1536 1539 1540 1543 1545 1547 1549 1550 1551
1410 1412 1415 1413 1413 1419 1421 1421 1426 1435 1439 1445 1451 1457 1463 1468 1473 1480 1485 1491 1496 1500 1505 1509 1512 1517 1520 1523 1527 1531 1534 1536 1538 1540 1542 1544 1546 1547
1401 1399 1399 1404 1405 1413 1415 1419 1418 1425 1429 1436 1444 1452 1458 1461 1466 1473 1478 1484 1489 1494 1499 1503 1508 1511 1514 1518 1522 1525 1528 1530 1532 1534 1536 1538 1540 1542
1397 1395 1395 1396 1399 1405 1401 1403 1407 1418 1424 1424 1429 1443 1449 1454 1459 1464 1470 1476 1482 1488 1492 1497 1501 1505 1508 1512 1515 1519 1522 1525 1527 1529 1530 1533 1535 1536
1390 1391 1391 1391 1393 1392 1396 1397 1399 1405 1411 1415 1423 1433 1441 1447 1450 1457 1463 1469 1476 1481 1486 1490 1494 1498 1501 1505 1508 1511 1515 1518 1521 1523 1525 1527 1529 1530
1381 1380 1381 1384 1382 1380 1385 1388 1391 1393 1401 1410 1414 1423 1431 1436 1441 1446 1453 1459 1467 1471 1478 1482 1487 1490 1494 1498 1501 1504 1507 1510 1513 1516 1518 1520 1522 1523
1373 1373 1372 1372 1374 1376 1378 1386 1384 1390 1397 1398 1405 1413 1418 1424 1427 1435 1444 1451 1456 1462 1468 1473 1477 1481 1485 1490 1493 1497 1500 1503 1507 1509 1511 1513 1515 1515
1366 1365 1365 1366 1366 1367 1370 1369 1377 1382 1385 1390 1396 1400 1405 1415 1422 1430 1435 1440 1446 1453 1458 1462 1467 1471 1477 1481 1486 1490 1494 1496 1500 1502 1503 1506 1507 1509
1359 1357 1357 1358 1358 1359 1359 1361 1367 1375 1377 1381 1385 1388 1397 1406 1415 1422 1426 1432 1435 1444 1450 1452 1457 1463 1468 1473 1479 1483 1487 1489 1492 1494 1496 1498 1500 1500
1351 1349 1347 1347 1348 1350 1353 1354 1359 1365 1369 1374 1376 1382 1390 1400 1407 1412 1417 1426 1431 1435 1441 1444 1449 1455 1462 1467 1471 1475 1479 1481 1485 1487 1489 1490 1491 1492
1342 1341 1339 1338 1339 1344 1346 1347 1345 1340 1351 1357 1363 1374 1383 1390 1397 1403 1410 1418 1422 1426 1432 1436 1442 1449 1454 1460 1464 1467 1471 1474 1476 1479 1481 1482 1483 1484
1334 1333 1331 1330 1328 1329 1328 1329 1328 1330 1345 1348 1356 1364 1372 1379 1385 1393 1400 1406 1412 1417 1422 1429 1434 1440 1446 1451 1454 1458 1462 1465 1468 1471 1473 1474 1476 1476
1326 1324 1323 1322 1322 1319 1318 1319 1318 1323 1334 1340 1347 1353 1361 1368 1375 1384 1388 1395 1399 1405 1411 1419 1424 1431 1436 1440 1446 1449 1453 1457 1459 1463 1465 1467 1467 1467
1318 1315 1313 1313 1313 1311 1310 1309 1309 1315 1322 1331 1337 1335 1346 1354 1363 1372 1378 1387 1391 1398 1404 1409 1414 1419 1426 1432 1436 1440 1445 1449 1452 1456 1458 1459 1460 1459
1309 1304 1302 1301 1301 1300 1297 1298 1301 1308 1311 1319 1330 1328 1331 1343 1349 1365 1371 1379 1384 1390 1396 1400 1405 1412 1418 1421 1428 1431 1437 1441 1444 1448 1451 1453 1452 1453
1299 1295 1293 1291 1288 1285 1283 1284 1288 1293 1298 1302 1312 1315 1324 1334 1338 1352 1360 1367 1373 1380 1386 1393 1399 1405 1408 1414 1419 1423 1430 1433 1437 1441 1443 1445 1446 1447
1292 1288 1283 1278 1273 1268 1266 1268 1274 1280 1287 1290 1302 1301 1311 1322 1328 1340 1346 1355 1362 1368 1377 1383 1390 1396 1402 1408 1412 1417 1422 1426 1431 1435 1437 1439 1440 1440
1287 1283 1278 1272 1264 1256 1252 1255 1260 1266 1271 1277 1290 1292 1300 1307 1319 1328 1336 1345 1353 1359 1367 1373 1380 1388 1394 1400 1406 1411 1416 1420 1424 1428 1430 1432 1433 1434
1284 1279 1272 1265 1256 1247 1241 1240 1246 1252 1260 1268 1278 1283 1287 1299 1311 1322 1329 1338 1344 1350 1359 1364 1370 1378 1383 1392 1397 1404 1410 1413 1417 1421 1424 1426 1427 1427
1284 1278 1270 1261 1252 1244 1236 1233 1233 1240 1249 1257 1269 1274 1280 1291 1308 1314 1318 1326 1334 1341 1349 1355 1361 1367 1376 1383 1387 1396 1403 1407 1411 1415 1417 1418 1420 1421
1285 1278 1272 1263 1254 1244 1238 1229 1223 1227 1239 1248 1256 1262 1277 1287 1296 1304 1316 1319 1325 1333 1340 1346 1353 1363 1370 1379 1384 1389 1396 1401 1406 1408 1411 1412 1413 1414
1290 1282 1275 1268 1259 1250 1241 1230 1226 1223 1231 1240 1250 1259 1271 1279 1286 1299 1307 1311 1318 1324 1330 1341 1347 1356 1364 1369 1375 1382 1389 1396 1399 1402 1404 1406 1409 1408
1295 1287 1280 1273 1266 1258 1249 1241 1230 1228 1230 1239 1242 1252 1264 1277 1288 1296 1299 1307 1315 1316 1326 1336 1340 1351 1359 1367 1370 1376 1384 1390 1392 1397 1399 1402 1404 1404